Westhampton, NY (11977)

2:46 AM EDT on August 31, 2015 (GMT -0400)
Newport Beach | | Change Station
CLOSE
Current Station
Personal Weather Station
Location: East Moriches, NY
Elevation: 30 ft
Nearby Weather Stations

Elev 30 ft 40.81 °N, 72.73 °W | Updated 1 second ago

Overcast
Overcast
74.3 °F
Feels Like 73 °F
N
2.9
Wind Variable Wind from WSW
Gusts 7.0 mph

Today
High -- | Low -- °F
--% Chance of Precip.
Yesterday
High -- | Low -- °F
Precip. -- in
6:16 AM 7:25 PM
Waning Gibbous, 97% visible
Pressure 30.04 in
Visibility 10.0 miles
Clouds Few 6000 ft
Mostly Cloudy 8000 ft
Overcast 10000 ft
Heat Index 73 °F
Dew Point 71 °F
Humidity 89%
Rainfall 0.00 in
Snow Depth Not available.
UV 0 out of 12
Pollen 9.90 out of 12
Air Quality Not available.
Flu Activity Not available.
METAR KFOK 310553Z 24011KT 10SM FEW060 BKN080 OVC100 24/21 A3004 RMK AO2 SLP171 T02390211 10250 20233 58006
Pressure 30.04 in
Visibility 10.0 miles
Clouds Few 6000 ft
Mostly Cloudy 8000 ft
Overcast 10000 ft
Heat Index 73 °F
Dew Point 71 °F
Humidity 89%
Rainfall 0.00 in
Snow Depth Not available.
UV 0 out of 12
Pollen 9.90 out of 12
Air Quality Not available.
Flu Activity Not available.
METAR KFOK 310553Z 24011KT 10SM FEW060 BKN080 OVC100 24/21 A3004 RMK AO2 SLP171 T02390211 10250 20233 58006

10-Day Weather Forecast

×

Almanac

Astronomy

Aug. 31, 2015 Rise Set
Actual Time
Civil Twilight
Nautical Twilight
Astronomical Twilight
Moon
Length of Visible Light
Length of Day
Tomorrow will be .
, % of the Moon is Illuminated

Today's Extremes

State Highs State Lows

Community

WunderPhotos

Upload Photos

1,851,217 photos uploaded!

WunderBlogs® & News

Nearby

Air Quality

  Air Quality AQ Index Pollutant
Not available.

Snow Depth

Station Depth Elevation

Earthquake Activity

City Distance Mag. Time & Date
Minimum magnitude displayed is 2.5.

Coastal Water Temperatures

Place Temperature

Stations

Nearby Weather Stations

Station Location Temp. Windchill Dew Point Humidity Wind Precip. Elev Updated Type